Terminal Aerodrome Forecast
Issued by NWS

Home | Current Version | Previous Version | Text Only | Print | Product List | Glossary On
Versions: 1 2 3 4 5 6 7 8 9 10 11 12 13 14 15 16 17
000
FTUS41 KGYX 010203 AAA
TAFHIE
TAF AMD
KHIE 010203Z 0102/0124 VRB03KT P6SM BKN022
     FM010600 08002KT 5SM BR OVC015
     FM011400 VRB03KT P6SM BKN035=

USA.gov is the U.S. government's official web portal to all federal, state and local government web resources and services.